RH
30 28 26 25 23 22 21 19 18 17 17 16 16 16 16 15 15 14 13 12 12 11 11 11 10 11 11 11 12 12 12 13 13 12 12 12 11 11 12 13 13 13 13 14 15 19 26 37 52 65 71 68 65 62 57 51 51 58 66 65 58 50 48 54 59 60 57 52 50 51 52 55 59 61 66 73 81 88 92 95 97 99 100 99 95
25 24 22 21 19 18 17 16 15 14 14 14 14 13 13 13 13 13 12 11 10 10 9 8 8 8 8 8 9 9 10 10 11 11 11 12 11 11 10 10 12 12 12 12 12 14 16 19 27 41 57 65 65 62 60 58 54 53 59 67 70 66 59 56 58 60 59 57 57 59 59 58 57 58 63 72 81 86 88 90 93 96 98 97 95
22 20 18 17 16 15 14 13 13 12 12 12 11 11 10 10 9 9 9 8 8 7 7 6 6 6 6 6 6 7 7 8 9 9 10 11 11 11 10 9 9 10 11 11 11 12 13 15 17 21 31 44 54 57 57 57 55 53 53 58 67 75 75 66 61 60 60 61 59 57 55 56 57 58 63 74 83 86 84 82 83 86 87 86 84
19 17 16 15 14 13 13 12 12 11 11 11 10 10 8 7 6 6 5 5 5 5 5 5 5 5 5 5 5 5 6 6 7 7 8 9 10 10 9 9 9 9 10 11 11 11 11 13 15 16 18 22 30 39 47 50 52 52 51 53 59 70 79 76 72 69 66 62 60 56 53 54 55 58 67 77 82 82 78 75 75 75 74 71 70
15 15 14 13 12 12 12 11 11 10 9 9 8 8 7 6 5 5 5 5 5 5 5 5 5 5 5 5 5 5 5 5 5 6 6 7 8 9 9 9 9 8 9 10 11 11 11 12 13 15 16 16 18 21 28 34 41 46 47 48 52 62 76 82 80 77 74 69 65 60 57 55 56 61 70 72 69 69 67 65 65 65 63 60 58
13 12 12 11 11 11 11 10 9 8 8 7 7 6 6 6 6 5 5 5 5 5 5 5 5 4 4 4 4 5 5 5 5 5 5 6 6 7 8 8 8 9 9 9 9 10 11 11 12 13 14 15 16 16 18 20 24 31 35 38 40 46 62 79 83 79 77 77 75 70 65 62 61 63 64 62 60 61 60 58 58 59 59 56 53
12 12 12 11 11 10 9 8 7 7 7 7 7 7 6 6 6 5 5 4 4 4 4 4 3 3 3 3 3 4 4 4 5 5 5 5 5 6 7 7 7 7 8 8 9 9 10 11 11 11 12 14 15 16 16 17 17 19 21 24 26 27 37 57 75 81 81 80 80 81 78 73 70 68 66 64 64 62 59 58 58 59 59 58 57
12 12 11 10 8 7 6 6 6 6 6 6 6 6 5 5 5 4 4 4 4 4 4 3 3 3 3 3 3 3 3 3 3 4 4 4 5 5 6 7 7 6 6 7 8 9 9 10 11 11 11 12 14 15 15 16 16 16 16 16 16 16 18 28 47 67 80 81 80 85 87 82 78 77 76 73 71 68 64 61 59 60 60 60 61
11 9 8 7 6 5 4 4 4 4 4 4 4 3 3 3 3 3 3 3 3 3 3 3 3 3 3 2 2 2 2 2 3 3 3 3 4 4 5 6 6 7 6 6 6 7 8 9 10 11 11 11 11 13 14 15 16 15 16 15 14 13 12 13 20 36 56 70 77 81 85 86 81 76 75 75 74 73 70 67 64 63 62 62 63
8 7 6 5 4 4 3 3 3 3 3 3 3 3 3 3 2 2 3 2 2 3 2 2 2 2 3 2 2 2 2 2 2 2 3 3 3 3 4 4 5 6 6 6 6 6 7 7 9 10 11 12 11 11 12 13 15 16 16 16 15 14 12 11 11 14 24 40 56 66 71 77 78 73 70 71 74 75 75 74 72 69 67 67 66
6 5 5 5 4 4 3 3 3 3 3 3 3 3 3 3 3 2 2 2 2 2 2 2 2 2 2 2 2 3 3 2 2 2 2 2 2 2 2 3 3 4 5 5 5 6 6 6 7 8 10 11 11 11 12 12 13 14 15 15 15 15 14 12 11 11 11 16 27 39 48 54 60 63 64 67 71 74 77 78 77 74 71 70 69
5 4 4 4 4 3 3 3 3 2 2 3 2 3 3 2 3 3 3 2 2 2 2 2 2 2 2 2 2 2 2 2 2 2 2 2 2 2 2 2 2 3 3 4 4 5 5 6 6 6 8 10 11 11 12 12 12 13 14 14 14 15 15 14 13 12 12 12 13 19 26 31 37 42 47 50 55 61 66 71 71 70 70 71 70
4 4 3 3 3 2 2 2 2 2 2 2 2 2 2 2 2 2 2 2 2 2 2 2 2 2 2 2 2 2 2 2 2 2 2 2 2 2 2 2 2 2 2 3 3 3 4 5 6 6 6 7 9 10 11 11 12 12 12 13 14 14 14 14 14 13 12 13 13 13 15 18 23 26 29 31 34 38 44 51 54 57 63 66 67
4 4 3 3 3 2 3 3 3 3 2 2 2 2 2 2 2 2 2 2 2 2 2 2 2 2 2 2 2 2 2 2 2 2 2 2 2 2 2 2 2 2 2 2 2 3 3 3 4 5 5 6 6 8 10 11 11 11 11 12 12 13 14 14 13 13 13 12 12 14 14 15 16 18 21 21 21 22 25 30 33 37 43 49 56
4 4 3 3 3 3 3 3 3 3 3 2 2 2 2 2 2 2 2 2 2 2 2 2 2 2 2 2 2 2 2 2 2 2 2 2 2 2 2 2 2 2 2 2 2 2 2 3 3 3 4 4 5 5 7 8 10 11 11 11 11 12 13 13 13 12 12 12 12 13 14 15 15 16 17 18 17 18 18 19 20 22 24 27 35
4 3 3 3 3 3 3 3 3 2 2 2 2 2 2 2 2 2 2 2 2 2 2 2 2 2 2 2 2 2 2 2 2 2 2 2 2 2 2 2 2 2 2 2 2 2 2 2 2 3 3 3 4 4 5 6 7 9 10 10 11 11 12 12 13 13 12 12 12 12 13 14 15 15 16 17 17 17 17 16 16 16 17 17 19
3 3 3 3 3 3 3 3 3 3 2 2 2 2 2 2 2 2 2 2 2 2 2 2 2 2 2 2 2 2 2 2 2 2 2 2 2 2 2 2 2 2 2 2 2 2 2 2 2 2 2 3 3 3 4 4 5 6 7 8 9 10 11 11 12 12 12 12 12 12 12 13 13 14 15 16 17 18 18 17 16 16 16 16 15
3 3 3 3 3 3 4 3 3 2 2 2 2 2 2 2 2 2 2 2 2 2 2 2 2 2 2 2 2 2 2 2 2 2 2 2 2 2 2 2 2 2 2 2 2 2 2 2 2 2 2 2 3 3 3 3 4 5 5 7 8 9 9 10 10 11 12 12 12 12 12 12 13 13 14 15 16 17 17 17 17 17 17 17 16
3 3 3 4 4 3 4 3 3 2 2 2 2 2 2 2 2 2 2 2 2 2 2 2 2 2 2 2 2 2 2 2 2 2 2 2 2 2 2 2 2 2 2 2 2 2 2 2 2 2 2 2 2 2 2 3 3 4 4 5 6 7 8 9 9 10 11 11 12 12 12 12 13 13 14 14 15 15 16 16 16 16 17 18 17
3 4 4 4 4 4 4 3 2 2 2 2 2 2 2 2 2 2 2 2 2 2 2 2 2 2 2 2 2 2 2 2 2 2 2 2 2 2 2 2 2 2 2 2 2 2 2 2 2 2 2 2 2 2 2 2 3 3 4 4 5 5 6 7 8 9 10 10 11 11 12 12 12 13 13 13 14 14 14 14 14 14 15 16 16
4 4 4 4 4 4 3 3 2 2 2 2 2 2 2 2 2 2 2 2 2 2 2 2 2 2 2 2 2 2 2 2 2 2 2 2 2 2 2 2 2 2 2 2 2 2 2 2 2 2 2 2 2 2 2 2 2 3 3 4 4 4 5 6 7 8 8 9 9 10 11 11 12 12 13 13 13 13 13 13 13 13 13 14 14
4 4 4 4 4 4 3 2 2 2 2 2 2 2 2 2 2 2 2 2 2 2 2 2 2 2 2 2 2 2 2 2 2 2 2 2 2 2 2 2 2 2 2 2 2 2 2 2 2 2 2 2 2 2 2 2 2 2 3 3 4 4 4 5 5 6 7 7 8 8 9 10 11 11 11 12 12 13 12 12 12 12 12 13 13
4 4 4 4 3 3 3 2 2 2 2 2 2 2 2 2 2 2 2 2 2 2 2 2 2 2 2 2 2 2 2 2 2 2 2 2 2 2 2 2 2 2 2 2 2 2 2 2 2 2 2 2 2 2 2 2 2 2 2 3 3 3 4 4 5 5 6 6 6 7 8 8 9 9 10 10 11 11 11 11 11 11 12 12 12
4 4 4 4 4 3 3 3 2 2 2 2 2 2 2 2 2 2 2 2 2 2 2 2 2 2 2 2 2 2 2 2 2 2 2 2 2 2 2 2 2 2 2 2 2 2 2 2 2 2 2 2 2 2 2 2 2 2 2 2 2 3 3 3 4 4 5 5 5 6 6 7 7 8 8 8 8 9 9 9 9 10 11 12 11
4 4 4 4 4 4 3 3 2 2 2 2 2 2 2 2 2 2 2 2 2 2 2 2 2 2 2 2 2 2 2 2 2 2 2 2 2 2 2 2 2 2 2 2 2 2 2 2 2 2 2 2 2 2 2 2 2 2 2 2 2 2 3 3 3 3 4 4 4 5 5 5 6 6 6 6 7 7 7 7 8 8 9 10 11
4 4 4 4 4 4 4 3 3 2 2 2 2 2 2 2 2 2 2 2 2 2 2 2 2 2 2 2 2 2 2 2 2 2 2 2 2 2 2 2 2 2 2 2 2 2 2 2 2 2 2 2 2 2 2 2 3 2 2 2 2 2 2 2 3 3 3 3 4 4 4 4 4 5 5 5 6 6 6 6 6 7 8 9 10
4 4 4 4 4 4 4 3 3 2 2 2 2 2 2 2 2 2 2 2 2 2 2 2 2 2 2 2 2 2 2 2 2 2 2 2 2 2 2 2 2 2 2 2 2 2 2 2 2 2 2 2 2 2 2 2 2 3 2 2 2 2 2 2 3 3 3 3 3 4 4 4 4 4 4 5 5 5 5 5 6 6 7 7 8
4 4 3 4 4 4 3 3 2 2 2 2 2 2 2 2 2 2 2 3 2 2 2 2 2 2 2 2 2 2 2 2 2 2 2 2 2 2 2 2 2 2 2 3 3 3 3 3 2 2 2 2 2 2 2 2 2 2 3 3 3 3 3 3 3 3 3 3 3 3 3 4 4 4 4 4 4 5 5 5 5 5 6 6 7
4 3 3 3 3 3 3 2 2 2 2 2 2 2 2 2 2 2 2 3 3 2 2 2 3 3 2 3 3 3 3 3 3 2 2 2 2 3 3 3 3 3 3 3 3 3 3 3 3 3 3 3 3 2 2 2 2 2 3 2 2 3 3 3 3 3 3 3 3 3 3 3 4 4 4 4 4 4 5 5 5 5 5 5 6
3 3 3 3 3 3 3 2 2 2 2 3 2 2 2 2 2 2 2 2 3 3 3 2 3 3 2 3 3 3 3 3 3 3 3 3 2 2 3 3 3 3 3 3 3 3 3 3 3 3 3 3 3 3 3 2 2 2 2 2 3 2 3 3 3 3 3 3 3 3 3 3 3 3 3 4 4 4 4 4 4 4 5 5 5
4 3 3 4 3 3 3 2 2 2 2 3 2 2 2 2 2 2 2 2 3 3 3 3 3 3 3 3 3 3 3 3 3 3 3 3 3 3 3 3 3 3 3 3 3 3 3 3 3 3 3 3 3 3 3 3 3 2 2 2 3 2 2 3 3 3 3 3 3 3 3 3 3 3 3 3 3 4 4 4 4 4 4 4 4
4 4 3 4 3 3 3 2 2 2 2 2 2 2 2 2 2 2 2 2 3 3 3 3 3 3 3 3 3 3 3 3 3 3 3 3 3 3 3 3 3 3 3 3 3 3 4 4 4 4 3 3 3 3 3 3 3 3 3 2 2 2 3 2 3 3 3 3 3 3 3 3 3 3 3 3 3 3 3 3 4 4 4 4 4
3 3 4 4 3 3 3 2 2 2 2 2 2 2 2 2 2 2 2 2 2 3 3 3 3 3 3 3 3 3 3 3 3 3 3 3 3 3 3 3 3 3 3 3 3 3 3 4 4 4 4 3 3 3 3 3 3 3 3 3 3 3 3 3 3 3 3 3 3 3 3 3 3 3 3 3 3 3 3 3 3 4 4 4 4
3 3 4 4 4 3 2 2 2 2 2 2 2 2 2 2 2 2 2 2 2 2 3 3 3 3 3 3 3 3 3 3 3 3 3 3 3 3 3 3 3 3 3 3 3 3 3 3 4 4 4 4 4 4 4 3 3 3 3 3 3 3 3 3 3 3 3 3 3 3 3 3 3 3 3 3 3 3 3 3 3 3 4 4 4
3 3 4 4 4 3 2 2 2 2 2 2 2 2 2 2 3 3 2 2 2 2 2 3 3 3 3 3 3 3 3 3 3 3 3 3 3 3 3 3 3 3 3 3 3 3 3 3 4 4 4 4 4 4 4 4 4 4 3 3 3 3 3 3 3 3 3 3 3 3 3 3 3 3 3 3 3 3 3 3 3 3 4 4 4
3 3 4 4 4 3 2 2 2 2 2 2 2 2 2 3 3 3 3 3 2 2 2 2 3 3 3 3 3 3 3 3 3 3 3 3 3 3 3 3 3 4 4 4 4 4 4 3 3 3 4 4 4 4 4 4 4 4 4 4 4 4 3 3 3 3 3 3 3 2 3 3 2 3 3 3 3 3 3 3 4 4 4 4 5
3 3 3 4 4 3 2 2 2 2 2 2 2 2 2 3 3 3 3 3 2 3 3 2 3 3 3 3 3 3 3 3 3 3 3 3 3 3 3 3 3 4 4 4 4 4 4 4 4 4 3 3 4 4 4 4 4 4 4 4 4 4 4 4 3 3 3 3 3 3 2 3 2 2 3 3 3 3 3 4 4 4 4 5 5
3 3 3 3 3 3 2 2 2 2 2 2 2 2 2 2 2 2 3 2 3 3 2 2 3 3 3 3 3 3 3 3 3 3 3 3 3 3 3 3 3 3 3 4 4 4 4 4 4 4 4 3 4 4 4 4 4 4 4 4 5 5 5 5 4 4 3 3 3 3 3 3 3 3 3 3 3 3 3 4 4 4 4 4 4
3 3 3 3 3 3 2 2 2 2 2 2 2 2 2 2 2 2 2 2 3 3 3 3 3 2 3 3 3 3 3 3 3 3 3 3 3 3 3 3 3 3 3 4 4 4 4 4 4 4 4 4 4 4 4 4 4 4 4 4 4 4 4 4 4 4 4 4 3 3 3 3 3 3 3 3 3 3 4 4 4 3 3 4 4
3 3 3 3 4 3 2 2 2 2 2 2 2 2 2 2 3 2 3 3 3 3 3 3 3 3 3 3 3 3 3 3 3 3 3 3 3 3 3 3 3 3 3 4 4 4 4 4 4 4 4 4 4 4 4 4 4 4 4 4 4 4 4 4 4 4 4 4 3 4 3 4 4 4 4 4 3 4 4 4 3 3 3 4 4
3 3 3 3 3 3 2 2 2 2 2 2 2 3 3 3 3 3 3 3 2 3 3 3 3 3 3 3 3 3 3 3 3 3 3 3 3 3 3 3 3 3 3 4 4 4 4 4 4 4 4 4 4 4 4 4 4 4 4 4 4 4 4 4 4 4 4 3 3 4 3 4 4 4 3 4 4 4 4 4 4 3 3 3 3
3 3 3 3 3 3 2 2 2 2 2 2 3 3 3 3 3 3 3 3 3 3 3 3 3 3 3 3 3 3 3 3 3 3 3 3 3 3 3 3 3 3 3 4 4 4 4 4 4 4 4 3 4 4 4 4 4 4 4 4 4 4 4 4 4 4 3 3 3 3 3 3 3 3 3 3 3 3 4 4 3 3 4 4 4
3 3 3 3 3 3 2 2 2 2 2 2 3 3 3 3 3 3 3 3 3 3 3 3 3 3 3 3 2 3 3 3 3 3 3 3 3 3 4 4 4 4 4 4 4 4 4 4 4 4 4 4 4 4 4 4 4 4 4 4 4 4 4 4 4 4 4 4 3 3 3 3 3 3 3 3 3 3 3 3 3 4 4 4 4
3 3 3 3 3 3 2 2 2 2 3 3 3 3 3 3 3 3 3 3 3 3 3 3 3 3 3 3 3 3 3 2 3 3 3 3 4 4 4 4 4 4 4 4 4 4 4 4 4 4 4 4 4 4 4 4 4 4 4 4 4 4 4 4 4 4 4 4 3 3 3 3 3 3 3 3 3 3 3 3 3 3 4 4 4
3 3 3 3 3 3 2 2 2 2 3 2 3 3 3 3 3 3 3 3 3 3 3 3 3 3 3 3 3 3 3 3 3 3 3 4 4 4 4 4 4 4 4 4 4 4 4 4 4 3 4 3 3 3 3 3 3 3 3 3 3 3 3 3 4 4 4 4 3 3 3 3 3 3 3 3 3 3 4 4 3 3 4 4 4
3 3 3 3 3 3 3 2 2 2 2 2 3 3 3 3 3 3 3 3 3 3 3 3 3 3 3 3 3 3 3 3 4 4 4 4 4 4 4 4 4 4 3 3 4 3 3 4 3 3 3 3 3 3 3 3 3 3 3 3 3 3 3 3 3 3 3 3 3 3 3 3 3 3 3 3 3 3 4 4 4 4 4 4 5
3 3 3 3 3 3 3 2 2 2 2 2 3 3 3 3 3 3 3 3 3 3 3 3 3 3 3 3 3 4 4 4 4 4 4 4 4 3 3 3 3 3 3 4 4 4 4 3 3 3 3 3 3 3 3 3 3 3 3 3 3 3 3 3 3 3 3 3 3 3 3 3 3 3 3 3 3 4 4 4 4 4 4 4 5
3 3 3 3 3 3 2 2 2 2 2 3 3 3 3 3 3 3 3 3 3 3 3 3 3 3 4 4 4 4 4 4 4 4 3 4 3 3 3 4 3 4 4 4 4 4 4 3 3 4 3 3 3 3 3 3 3 3 3 3 3 3 3 3 3 3 3 3 3 3 3 3 3 3 3 3 4 4 4 4 4 4 5 5 5
3 3 3 3 3 3 2 2 2 2 3 3 3 3 3 3 3 3 3 4 4 3 3 4 4 4 4 4 4 4 4 4 4 3 3 3 3 3 4 4 4 4 4 4 4 4 4 4 4 4 4 3 3 3 3 3 3 3 3 3 3 3 3 3 4 3 3 4 4 3 4 3 3 3 3 3 3 4 4 4 4 5 5 5 5
3 3 3 3 3 3 2 2 2 2 3 3 3 3 3 3 3 4 3 4 4 3 4 4 4 4 4 4 4 4 4 4 3 3 4 4 4 4 4 4 4 4 4 4 4 4 4 4 4 4 4 4 4 4 4 3 3 4 3 3 3 3 3 4 4 4 4 4 4 4 4 4 4 4 4 4 4 4 4 4 5 5 5 5 6
3 3 3 3 3 3 3 2 2 2 3 3 3 3 3 3 3 4 4 4 4 4 4 4 4 4 4 4 4 4 3 4 4 4 4 4 4 4 4 4 4 4 4 4 4 4 4 4 4 4 4 4 4 4 4 4 4 4 4 4 4 4 4 4 4 4 4 4 4 4 4 4 4 4 4 5 4 4 5 5 5 5 6 6 6
Wind_Speed
94 95 96 97 99 100 102 104 105 106 106 107 107 108 109 110 111 112 112 112 112 113 114 115 116 116 117 118 120 121 123 125 126 128 129 130 131 130 130 131 132 133 133 133 133 132 132 131 131 131 131 130 128 128 126 123 121 119 118 117 115 112 110 109 109 111 111 110 110 110 111 112 112 113 113 113 113 114 114 114 114 114 115 116 117
91 92 94 96 97 99 100 102 103 103 104 105 106 107 108 109 110 111 112 112 112 113 114 114 114 114 114 115 116 117 119 121 123 124 126 129 131 131 130 130 131 132 133 133 133 133 133 133 132 132 133 133 132 131 130 128 126 123 121 120 119 117 115 113 113 113 113 112 111 111 111 111 111 111 111 111 112 113 113 114 114 114 115 117 118
88 90 92 94 96 98 100 100 101 102 102 103 104 105 106 107 108 109 110 110 110 111 112 112 112 112 111 111 111 112 115 117 119 120 122 125 128 130 131 130 130 130 132 133 133 133 133 134 134 134 134 135 135 134 134 133 131 128 125 123 122 122 121 119 117 116 116 115 115 114 112 111 110 109 109 110 112 113 114 114 114 115 116 118 118
86 88 90 92 94 96 98 99 100 101 102 103 104 105 106 106 105 105 106 106 106 105 106 108 109 109 108 107 106 107 109 111 113 115 118 120 123 126 128 129 129 129 130 132 134 133 132 133 135 136 136 136 136 136 136 136 135 133 130 128 126 125 125 125 122 120 120 119 119 117 114 113 111 109 109 112 114 115 114 114 115 116 117 117 117
85 86 88 91 92 94 95 97 98 100 101 102 103 104 105 105 104 103 103 104 104 103 103 105 106 105 103 102 102 103 104 105 107 109 111 114 117 120 123 126 127 128 129 130 132 133 132 132 134 136 137 137 137 137 137 137 137 137 135 132 130 128 128 129 128 126 124 123 122 121 119 116 113 112 114 115 115 115 115 115 115 115 116 116 115
84 85 87 89 91 93 94 96 97 99 100 101 101 102 103 103 102 102 102 102 102 102 102 102 101 99 96 96 97 99 100 102 103 105 106 108 110 112 116 121 123 124 126 127 129 131 132 133 134 134 136 138 138 138 138 138 138 139 138 137 134 132 130 131 132 130 128 127 126 125 123 120 118 117 118 117 116 116 116 115 114 114 115 115 114
83 86 88 90 92 94 95 96 97 98 99 100 101 102 103 102 102 102 101 99 99 99 99 98 96 94 92 91 93 94 95 96 99 101 102 103 105 107 110 114 119 120 122 124 125 127 129 132 134 134 134 136 139 140 140 140 140 139 140 139 138 135 133 133 133 134 133 131 129 128 127 125 123 122 121 120 119 119 118 117 116 116 116 116 115
84 86 89 92 93 94 94 94 94 94 94 95 97 100 101 101 101 101 100 99 99 98 97 96 94 91 90 90 89 87 88 89 92 94 96 97 99 102 104 108 113 117 117 118 121 123 125 128 132 133 134 135 137 139 140 141 141 141 140 140 140 138 135 134 134 135 136 135 133 132 131 131 129 127 126 125 124 123 122 120 119 118 118 117 117
83 86 89 90 91 91 90 88 87 86 85 86 88 90 92 93 93 93 93 93 94 95 95 94 92 91 91 89 85 84 84 84 85 87 89 91 92 94 98 101 106 112 114 113 115 118 120 122 126 130 132 134 135 137 138 140 141 142 141 141 141 140 137 135 134 135 137 138 136 135 135 135 134 132 130 129 128 127 125 124 122 121 121 120 120
83 84 85 85 86 86 84 82 81 79 78 79 80 80 81 82 82 82 83 83 84 84 85 85 85 86 87 86 84 85 85 83 82 83 84 86 87 87 90 93 97 103 109 109 109 111 114 116 119 123 128 131 133 135 136 138 140 141 142 142 142 142 140 137 134 134 135 137 139 139 138 138 138 136 133 132 131 130 129 128 127 126 125 124 125
83 82 82 82 82 82 81 79 77 75 75 75 74 74 75 76 76 77 77 77 76 76 76 76 76 77 77 78 80 81 82 82 81 81 82 83 83 83 84 87 90 94 101 105 105 105 108 110 112 116 121 126 129 131 133 135 137 139 141 141 142 142 142 140 136 134 133 134 137 139 140 140 139 138 136 135 134 134 133 132 132 131 130 129 129
82 81 80 79 77 77 76 74 72 70 69 69 68 67 68 69 69 71 73 73 72 72 72 72 71 71 70 70 71 73 74 76 77 78 80 81 81 82 82 82 85 88 93 98 100 101 102 104 107 109 113 118 124 127 130 132 134 136 138 140 140 141 141 141 139 136 134 133 134 137 139 140 140 140 139 138 137 136 136 136 135 134 133 132 132
79 79 78 76 73 73 72 70 69 68 67 66 64 63 62 62 62 63 64 65 66 67 67 67 67 67 66 65 65 66 67 68 70 73 75 77 79 80 80 80 81 84 88 92 95 98 98 99 101 104 107 111 116 122 126 128 130 131 134 136 137 139 140 140 140 138 136 134 134 135 137 139 140 140 140 139 138 138 138 138 137 136 136 135 135
78 78 77 76 74 72 70 69 68 68 66 65 63 62 60 60 59 58 58 59 59 60 61 62 62 63 63 62 62 63 64 64 66 69 71 73 75 76 77 78 79 81 84 88 91 95 97 97 98 101 104 107 110 115 119 124 127 129 130 131 133 135 137 138 139 138 137 135 134 134 135 136 138 139 140 140 139 138 138 138 138 138 137 137 137
76 75 75 74 72 70 68 68 67 66 65 64 62 60 59 58 57 56 56 55 55 55 56 57 57 58 59 59 60 61 61 62 64 67 68 68 69 71 73 75 76 78 80 84 87 90 93 95 96 98 101 104 107 109 113 118 122 125 128 129 130 132 134 135 136 137 136 135 134 134 134 135 136 137 139 139 139 138 138 138 138 138 138 137 137
73 72 70 70 69 68 67 66 66 65 64 63 61 59 58 56 55 54 54 53 52 52 52 53 54 54 55 55 56 57 58 59 62 64 64 64 64 66 68 70 71 74 76 79 82 84 87 91 93 95 97 101 104 106 109 112 116 120 123 126 128 129 131 132 133 134 134 134 134 134 134 135 135 136 137 138 138 138 138 138 138 138 138 137 137
68 69 68 67 66 66 65 65 64 63 62 61 59 57 56 54 53 52 51 50 49 49 50 50 51 52 52 52 52 53 54 56 58 60 61 61 62 63 64 66 67 69 73 75 77 80 82 85 88 91 93 96 99 102 105 108 111 114 117 120 124 126 128 130 131 132 132 132 132 132 133 133 134 134 135 135 136 137 138 138 137 137 138 138 137
66 67 67 67 66 64 64 64 63 61 59 58 57 55 53 52 51 50 49 48 48 48 49 49 49 50 50 50 50 50 51 53 56 57 58 59 61 61 62 63 64 66 69 71 74 76 78 81 84 87 88 91 94 97 101 104 107 110 112 115 119 122 125 127 128 130 130 131 131 131 131 131 132 132 133 134 134 135 136 137 137 137 138 139 138
65 66 66 66 65 63 62 62 61 59 57 55 54 52 51 49 48 48 47 47 47 47 48 48 48 48 48 48 48 49 50 52 54 55 56 57 58 59 59 60 61 63 65 67 70 72 75 78 80 83 85 87 89 92 96 101 104 106 109 112 115 118 120 122 124 126 128 129 130 130 130 130 130 131 131 132 133 133 134 134 135 135 135 137 137
64 64 65 65 64 62 59 58 58 57 55 53 51 50 48 46 46 45 45 46 46 46 47 47 47 47 47 47 47 48 49 50 52 53 53 54 55 56 57 58 59 60 62 64 66 68 71 74 76 79 81 84 85 88 91 96 100 103 106 109 112 114 116 118 120 122 125 127 128 129 129 129 129 129 130 130 131 131 132 132 132 132 132 134 135
63 64 64 64 63 61 59 56 55 54 53 51 49 48 46 44 42 43 43 43 44 45 46 46 46 45 46 46 46 47 48 49 51 51 51 52 53 54 55 56 57 58 59 61 63 65 67 70 72 74 77 79 81 83 86 90 94 99 102 106 109 111 113 114 117 119 122 124 126 127 128 128 128 128 129 129 129 130 130 130 130 130 130 131 132
60 62 63 63 62 61 59 56 54 52 51 49 47 45 44 42 41 41 41 41 42 42 43 43 44 44 45 45 46 46 47 48 49 49 50 50 51 52 53 54 55 56 56 58 60 61 64 66 68 70 72 74 76 79 81 85 88 93 97 101 105 107 109 111 113 116 118 121 123 124 125 126 127 128 128 128 128 128 129 129 128 128 128 129 129
59 60 61 62 61 59 58 56 54 52 51 49 46 44 42 41 41 40 40 40 40 40 40 40 40 41 42 43 44 45 47 48 48 48 48 49 49 50 52 53 54 54 54 55 57 58 61 62 64 66 68 69 71 74 77 79 82 86 91 96 100 102 105 108 110 112 115 117 119 120 121 123 125 126 126 126 126 127 128 128 127 127 127 127 128
58 59 60 61 60 58 57 55 53 52 51 49 47 44 42 40 40 39 39 38 38 38 38 37 37 38 38 40 42 44 45 47 47 47 47 47 48 49 50 52 53 52 52 53 54 56 58 60 61 63 64 65 67 69 72 75 77 80 84 89 93 97 100 103 106 109 111 113 115 116 117 119 121 123 124 124 125 125 126 126 126 126 126 126 127
57 58 59 59 59 58 57 55 53 51 51 50 48 46 43 41 39 38 37 36 34 34 35 35 35 36 36 37 39 41 43 44 46 46 46 46 46 47 48 50 51 51 51 51 52 54 55 57 58 60 61 62 63 65 68 70 73 75 78 83 87 90 94 97 100 104 107 110 111 113 114 117 118 120 120 122 123 123 124 124 124 124 124 125 126
55 55 57 57 57 57 57 55 53 51 50 49 48 46 44 41 39 38 37 36 33 31 31 32 32 33 34 35 36 38 39 40 42 43 43 44 44 45 46 47 49 50 50 50 51 52 53 55 56 57 59 60 61 62 64 66 69 71 73 77 80 83 87 90 93 97 101 104 107 109 111 113 115 115 117 118 120 120 121 121 121 121 122 123 125
54 54 54 55 55 54 54 54 53 52 50 48 47 46 43 40 38 37 37 37 35 32 30 30 30 31 32 33 35 35 36 37 39 40 40 40 41 42 43 44 46 47 47 48 49 50 52 53 55 56 57 58 59 60 62 64 66 68 70 73 75 78 81 83 86 90 94 98 100 103 106 108 109 110 112 114 115 116 116 116 117 117 119 121 123
57 56 55 54 54 53 52 51 51 51 50 49 47 46 44 41 38 35 35 36 37 35 32 31 30 31 31 31 32 34 34 35 36 37 37 37 38 39 40 42 43 44 44 45 46 47 49 51 53 54 56 57 58 59 60 62 64 66 68 70 72 74 76 79 81 84 88 91 93 96 99 102 104 106 107 109 110 111 111 112 113 114 116 118 120
58 58 57 54 53 53 52 50 48 48 48 48 47 45 44 42 39 36 34 34 36 36 34 32 31 31 31 31 31 32 33 34 35 35 35 35 35 36 37 39 41 42 42 42 43 45 47 48 50 51 53 54 56 58 59 60 62 64 66 68 70 72 73 76 78 80 83 85 87 90 93 96 99 101 103 105 107 108 109 109 110 112 113 115 116
59 58 56 54 52 51 50 49 47 46 45 46 45 44 42 42 40 37 33 31 32 35 35 33 32 31 30 30 30 30 31 33 34 34 34 34 34 34 35 37 38 40 42 43 43 44 45 46 46 47 49 51 53 56 57 59 60 62 64 66 68 70 72 74 76 77 79 81 83 85 87 90 93 95 98 101 103 105 106 107 109 110 111 112 113
61 59 57 54 52 50 49 48 46 45 44 43 43 43 42 40 39 37 34 31 29 31 32 32 32 31 30 30 30 30 30 31 33 34 34 33 33 33 34 35 36 38 40 42 43 44 44 44 45 45 46 47 49 52 54 56 58 60 61 63 66 68 70 72 73 75 76 78 79 81 83 85 87 90 92 95 98 100 102 104 105 107 108 109 109
60 59 57 54 52 50 48 47 46 45 44 43 42 42 42 40 38 37 35 32 29 28 29 30 30 30 28 29 29 29 29 30 31 32 32 32 33 34 34 34 34 36 38 40 41 43 43 44 44 45 45 46 47 48 50 52 54 56 58 61 63 65 67 69 71 73 74 75 77 78 79 81 82 84 87 89 92 94 96 98 100 102 103 104 104
59 58 56 53 52 50 47 45 44 44 43 42 41 40 40 40 39 37 35 33 31 28 27 27 28 27 27 27 28 29 28 28 29 30 31 31 32 33 34 33 33 34 36 37 39 40 42 43 44 44 45 46 46 46 46 47 49 52 54 57 59 62 64 66 68 70 72 73 74 76 77 79 80 82 83 85 87 89 91 93 95 97 98 98 99
58 57 55 53 51 49 46 44 42 42 41 40 39 38 38 38 39 38 37 34 32 29 27 26 26 24 25 26 27 27 27 27 27 27 28 30 31 32 32 32 33 33 34 35 36 37 39 41 42 43 44 45 46 45 45 47 48 49 51 53 55 58 60 63 65 67 69 70 72 74 76 77 79 80 81 82 84 85 87 88 90 91 92 93 94
56 56 54 52 51 49 47 44 42 41 40 39 38 38 37 37 37 37 37 35 33 31 28 26 24 23 24 25 26 26 25 25 25 25 26 27 28 30 30 30 31 31 32 33 34 35 37 39 41 42 44 44 45 45 46 47 48 49 50 51 53 55 58 60 63 65 66 68 69 71 73 75 77 78 79 80 81 82 83 84 84 85 86 87 89
55 53 51 50 49 48 46 44 42 41 40 39 38 37 37 36 35 35 35 34 32 31 29 26 24 23 24 24 24 23 23 23 24 24 24 24 26 27 28 28 29 29 30 31 32 34 35 37 39 40 42 42 43 44 46 47 48 49 50 51 52 54 57 59 61 63 64 65 67 69 71 73 75 76 77 78 78 79 79 79 79 80 82 83 84
55 53 50 48 47 45 43 42 41 39 38 38 37 36 36 35 35 34 33 32 31 30 29 26 24 23 23 22 22 21 22 23 23 23 23 23 24 25 26 27 28 29 29 30 31 32 34 35 37 38 39 40 41 43 45 46 46 47 48 49 50 53 55 57 59 61 62 63 65 66 68 69 71 72 73 73 74 75 75 75 76 78 80 81 83
55 53 51 49 48 46 43 41 39 38 37 36 35 34 34 34 34 33 32 31 30 29 28 26 24 22 21 21 20 21 21 22 22 22 23 23 23 24 25 26 27 28 29 29 30 31 33 34 35 36 37 37 38 40 42 42 43 44 45 47 48 51 54 56 58 59 60 61 62 63 64 65 66 67 67 68 69 70 70 72 75 77 79 80 82
57 54 51 49 49 47 44 41 39 37 37 36 35 34 34 34 34 33 31 30 29 28 27 25 24 23 21 21 20 21 21 21 21 21 22 22 22 22 23 24 25 26 27 28 29 31 32 32 33 34 34 35 37 38 39 40 41 42 43 44 46 48 51 54 55 56 56 57 58 59 60 61 61 62 64 65 66 67 67 70 74 75 76 77 80
57 54 52 50 49 48 45 42 40 38 37 36 36 35 35 34 32 31 30 29 28 26 25 25 24 23 22 21 20 20 20 20 20 20 20 20 20 20 21 22 22 23 25 26 27 29 30 31 32 33 34 35 36 37 38 39 40 40 40 41 43 45 47 49 51 52 52 53 54 55 56 57 58 60 62 64 65 65 66 69 71 72 73 75 76
56 54 52 50 49 47 45 43 41 39 37 36 36 35 34 33 31 29 28 27 26 25 24 24 23 23 22 21 20 19 19 18 18 18 18 18 19 19 20 20 21 21 22 23 25 26 28 29 31 32 33 34 35 35 36 37 38 39 39 40 41 42 44 46 47 48 49 50 51 52 53 54 56 58 59 61 62 63 64 66 68 69 70 70 71
57 55 53 51 50 48 45 43 42 40 38 37 36 35 34 31 29 28 27 25 24 23 23 22 22 21 21 20 19 18 18 17 17 17 17 17 18 18 18 19 20 20 21 22 23 25 26 27 28 29 30 32 32 33 33 34 35 36 37 38 39 40 42 43 45 46 47 48 48 49 50 51 53 55 56 57 58 59 60 63 65 65 65 65 66
56 55 53 52 51 48 45 43 42 41 39 38 36 34 33 31 29 27 25 24 23 23 22 21 20 19 19 19 19 18 17 17 16 16 16 16 16 16 17 18 19 20 20 21 22 23 24 25 26 26 27 28 29 30 31 31 33 33 34 35 37 38 39 40 41 43 44 45 45 46 47 48 50 51 53 54 55 56 56 59 60 60 60 61 62
57 55 53 52 51 49 45 43 42 41 40 38 36 34 32 31 29 27 25 24 23 22 21 20 19 18 18 17 17 17 16 16 15 15 14 14 14 15 16 17 18 18 19 19 20 21 22 23 24 24 25 26 27 28 28 29 30 31 32 33 35 36 37 37 38 40 41 42 43 43 44 45 46 47 49 50 51 52 53 55 56 56 56 57 57
57 55 53 52 51 49 46 43 42 41 39 37 35 33 32 30 29 27 25 23 22 21 20 19 18 17 17 16 16 15 15 14 14 13 13 13 13 14 14 15 16 16 16 17 17 18 18 19 20 21 22 23 24 25 25 26 26 27 28 30 32 33 34 35 36 37 39 40 41 41 41 42 42 43 44 45 47 49 51 52 53 52 52 53 54
58 56 54 52 51 49 46 43 42 40 39 37 36 34 32 31 29 27 25 23 22 20 18 17 17 16 16 16 15 14 14 13 12 11 11 11 12 12 12 12 12 13 13 13 13 14 15 16 16 17 18 18 20 21 22 23 23 24 24 25 27 29 30 32 33 35 36 37 38 39 39 39 40 40 40 42 43 45 47 49 50 50 50 50 51
58 57 55 53 52 50 47 44 42 40 39 38 36 34 33 31 29 27 25 23 21 19 17 16 16 15 15 15 14 13 13 12 10 9 9 10 10 10 9 9 9 10 10 11 11 12 12 13 13 14 15 16 17 19 20 20 21 21 21 22 23 24 26 28 30 31 33 34 35 36 36 37 37 37 38 39 40 41 43 45 46 47 47 48 48
59 58 55 53 52 50 47 44 42 41 40 38 36 34 33 31 28 27 25 23 21 19 17 16 15 15 14 14 13 12 11 10 9 9 8 8 7 7 7 7 7 8 8 9 9 10 10 11 11 12 13 14 15 16 17 18 18 19 19 19 20 21 23 25 27 29 30 31 32 32 33 34 34 34 35 36 37 38 40 41 43 44 44 44 44
60 58 56 54 53 51 47 44 42 41 40 38 36 34 32 30 28 27 25 23 21 19 17 16 15 14 13 13 12 11 10 9 8 8 7 6 6 5 5 5 5 6 6 7 7 8 8 8 9 10 11 12 14 15 15 16 16 17 17 18 18 19 20 22 25 26 27 28 29 29 30 30 31 31 32 33 34 35 36 37 38 39 39 40 40
60 59 56 54 53 50 47 44 42 41 39 37 36 34 32 30 28 27 26 23 21 20 18 16 14 13 12 11 11 10 9 9 9 8 7 6 6 5 5 4 4 4 4 4 4 5 5 7 8 9 10 11 12 13 14 14 15 15 16 16 17 18 19 20 22 23 24 25 26 26 27 27 27 27 28 29 30 31 32 33 34 35 36 37 37
62 60 58 55 52 49 46 44 42 41 39 37 36 34 33 31 29 27 26 23 22 20 18 16 14 13 11 11 10 10 11 10 9 8 7 7 6 5 4 3 3 3 2 2 3 3 4 5 7 7 8 9 10 11 12 13 14 15 15 15 16 16 17 18 19 20 21 22 22 23 23 24 24 25 25 26 27 29 30 32 33 34 35 36 36
Wind_Direction
282 281 281 280 278 277 276 275 274 274 273 272 272 271 270 269 269 268 267 266 265 264 262 261 259 258 257 257 256 256 255 255 255 255 254 254 253 253 251 251 251 250 250 249 249 248 247 246 246 246 247 248 248 248 248 247 246 245 246 247 247 246 245 244 245 245 246 246 246 246 246 245 245 245 245 245 246 246 246 246 246 247 247 247 247
285 284 283 282 281 280 279 278 277 276 275 274 273 272 271 270 269 268 267 266 265 265 264 263 261 260 259 258 257 256 256 256 255 255 255 255 254 254 253 252 251 251 251 250 249 249 248 248 247 246 246 247 248 248 248 248 247 245 245 245 247 247 246 245 244 245 245 246 246 246 245 245 245 245 245 246 246 246 247 247 247 247 247 247 247
286 285 284 283 283 282 281 280 279 278 277 276 275 273 272 271 269 268 267 266 265 265 265 265 264 263 262 260 259 258 257 256 256 255 255 255 254 255 254 253 252 251 251 251 250 249 248 248 248 247 246 246 246 247 248 248 248 247 245 244 245 246 246 246 245 245 246 246 246 246 246 246 246 246 246 246 246 246 246 246 246 246 246 247 247
286 285 284 283 282 281 280 279 279 278 277 275 274 273 273 272 271 271 270 270 269 268 267 267 267 266 265 264 263 261 260 259 257 256 255 254 254 254 255 254 254 252 251 251 251 250 249 248 248 248 247 247 246 246 247 248 248 248 247 245 244 244 246 246 245 245 246 246 246 246 246 246 246 246 246 246 246 246 246 246 246 246 247 247 247
286 284 283 281 280 279 278 277 276 275 275 274 274 273 274 274 274 274 274 273 273 272 271 270 268 267 266 265 264 263 262 260 259 257 256 255 254 254 254 254 254 253 252 250 250 251 250 249 247 247 247 247 247 246 246 247 247 248 247 246 245 244 244 246 246 245 245 246 246 246 246 246 246 246 245 245 245 246 246 246 246 247 247 248 248
286 285 283 281 280 279 278 277 276 276 276 277 277 277 276 277 276 276 275 274 273 273 272 270 269 268 266 265 264 262 261 260 259 257 256 255 254 253 253 253 253 252 252 251 250 249 250 250 249 247 247 247 247 247 247 246 247 247 247 247 246 245 244 244 246 246 245 245 246 246 247 247 246 246 245 246 246 246 247 247 247 248 248 249 249
287 286 285 283 282 281 280 280 280 280 280 280 280 280 279 279 278 277 276 276 275 274 273 272 271 270 269 267 265 263 261 260 259 258 257 255 254 253 252 252 252 251 250 250 249 248 248 248 249 248 247 246 247 247 247 247 247 247 247 247 247 246 244 244 244 246 246 245 246 246 247 247 246 246 246 247 247 247 247 247 247 248 248 249 249
288 287 285 284 283 283 283 283 282 281 281 280 278 277 277 277 277 277 277 277 277 276 276 275 274 274 272 270 267 265 263 261 260 259 258 256 255 253 252 252 253 252 250 249 249 248 247 246 247 248 248 247 246 246 246 246 246 247 247 247 247 246 245 244 243 244 246 246 246 246 246 246 246 246 246 246 246 247 247 247 248 248 248 249 249
289 287 286 286 286 286 285 285 284 282 281 279 277 276 276 276 276 275 275 274 274 273 273 274 274 274 273 272 270 269 267 264 262 260 258 256 254 252 252 251 252 253 252 249 248 248 246 245 245 246 247 247 247 246 246 246 246 246 247 247 248 247 246 245 243 243 244 245 246 245 246 246 246 246 245 245 246 247 247 248 248 248 248 249 250
290 289 290 291 291 291 291 290 289 288 286 283 281 280 279 278 278 277 275 274 272 271 271 271 271 270 270 270 270 269 267 265 263 261 259 257 254 251 250 249 249 251 252 251 248 247 247 245 243 244 245 246 246 247 246 246 246 246 246 247 247 248 248 247 245 243 242 243 245 245 245 246 246 246 246 246 246 246 247 247 248 248 248 249 249
295 296 297 297 296 295 294 293 292 290 288 286 284 283 282 280 280 279 278 277 276 275 274 272 271 269 267 266 265 264 264 263 262 261 260 258 255 252 249 247 247 248 250 250 248 247 246 245 244 242 242 244 245 246 246 246 246 246 246 247 247 248 248 249 248 246 243 243 243 244 245 246 246 246 247 246 246 246 246 246 247 247 247 248 248
300 301 299 297 296 295 294 293 292 291 288 286 284 282 280 279 278 277 277 278 278 277 276 275 273 272 269 266 264 262 261 260 260 259 258 257 256 254 251 247 246 245 247 248 248 246 244 244 244 242 241 241 242 244 245 245 245 245 246 246 247 247 248 249 249 248 246 244 243 244 245 245 246 246 246 246 246 246 246 246 246 247 247 247 248
303 302 300 300 299 298 299 299 298 297 295 292 290 287 285 282 280 278 277 277 276 275 275 274 273 272 271 269 266 264 262 260 259 257 256 255 254 254 252 249 246 245 244 245 246 245 244 242 242 242 241 240 240 241 242 244 244 245 245 246 246 247 247 248 249 249 248 247 245 244 244 245 245 246 246 246 246 246 247 247 246 247 247 247 248
307 306 306 305 304 304 303 303 302 300 299 297 296 294 292 289 287 284 282 279 277 275 273 272 271 270 269 268 266 264 263 261 258 256 254 253 252 252 251 250 248 245 244 244 243 243 243 241 239 239 239 239 239 239 240 241 243 244 244 245 245 246 246 247 248 248 249 248 247 246 245 245 245 245 246 246 246 246 247 247 247 247 247 247 247
309 307 306 305 305 305 305 304 303 302 301 300 298 297 295 292 291 289 286 283 280 277 274 272 270 269 267 266 264 263 262 260 258 256 254 253 252 251 250 249 249 247 245 244 243 242 242 241 238 236 236 237 237 238 238 239 240 241 243 243 244 244 245 246 246 247 248 248 248 247 247 246 245 245 245 246 246 246 247 247 247 247 247 247 247
308 307 305 305 306 306 306 306 304 303 302 300 299 297 296 294 293 290 288 285 282 279 276 274 272 269 267 266 264 262 261 259 258 257 256 254 253 251 250 249 248 247 246 245 245 244 243 242 240 237 236 235 236 236 236 237 238 239 240 242 242 243 243 244 245 246 247 247 247 247 247 247 246 246 246 246 246 246 247 247 247 247 248 247 247
309 308 307 307 308 308 308 306 304 304 302 301 299 298 296 295 293 291 288 286 284 281 278 276 273 271 269 267 265 263 260 258 257 257 256 256 254 253 252 250 248 246 246 245 245 244 243 242 241 239 237 236 235 235 235 235 236 237 237 239 240 241 242 243 243 244 245 246 246 247 247 247 246 246 246 246 246 246 246 247 247 247 248 248 248
312 310 310 310 310 310 308 306 305 304 303 301 300 299 298 297 295 293 290 288 285 283 280 278 275 273 271 269 266 264 261 259 257 256 256 255 254 254 253 251 250 248 246 245 245 244 243 242 242 241 239 237 236 235 234 234 235 236 236 237 238 239 240 241 242 242 243 245 245 246 246 246 246 246 246 246 246 246 246 246 246 247 247 248 248
314 313 312 311 310 310 309 308 306 305 304 302 301 300 300 299 297 295 292 290 287 284 282 279 277 275 272 270 267 264 262 259 258 256 255 254 254 253 252 251 250 249 247 246 245 244 243 243 242 242 241 240 237 236 235 234 233 234 235 236 236 237 238 239 240 241 242 243 244 244 245 245 245 246 246 246 246 246 246 246 246 246 246 247 248
316 314 313 311 311 310 310 309 308 307 306 304 303 303 301 300 298 296 294 291 289 286 284 281 278 276 273 270 268 265 262 260 259 257 255 254 253 251 251 250 249 248 247 246 245 244 244 243 243 242 241 241 239 237 236 234 233 233 234 235 235 236 236 237 238 239 240 241 241 242 243 244 244 245 245 245 246 246 246 247 247 247 247 247 247
317 315 313 312 312 312 312 311 309 308 307 306 305 304 302 301 299 297 294 292 289 287 285 282 280 277 274 271 268 265 262 260 259 258 256 254 252 251 250 249 248 247 246 246 245 245 244 244 243 242 242 241 241 239 238 236 234 233 233 234 235 236 236 236 237 238 239 240 240 241 242 243 243 244 244 244 245 246 246 246 247 247 247 247 247
317 315 315 314 315 315 314 313 312 310 309 308 306 305 304 302 300 298 296 293 290 287 284 282 279 278 275 272 269 266 264 261 259 258 257 255 253 251 250 249 248 247 246 246 245 245 244 244 243 242 242 242 241 240 239 237 235 234 233 234 235 235 236 236 236 237 238 239 240 240 241 241 242 243 243 243 244 245 245 246 246 247 247 247 247
320 318 317 317 316 316 316 315 314 313 312 311 310 309 307 305 303 300 297 294 291 288 285 281 278 275 274 272 270 268 266 264 261 259 257 256 254 253 251 250 248 247 246 246 245 245 244 244 243 242 242 241 241 241 240 239 237 235 234 234 234 235 236 236 236 237 237 238 239 240 240 241 241 242 243 243 243 244 245 245 246 246 246 247 247
323 321 319 318 317 317 317 317 316 315 314 314 313 312 310 307 305 302 299 296 293 290 288 284 279 275 272 270 269 267 267 266 265 262 259 257 255 254 252 251 250 248 246 246 245 245 244 244 243 242 242 241 240 241 241 240 239 237 236 235 235 235 235 236 237 237 238 238 239 239 239 240 241 242 242 243 243 244 244 245 245 245 246 246 247
325 323 321 320 319 319 319 318 317 316 316 316 315 315 313 310 308 304 301 297 294 291 289 287 283 279 275 271 268 266 265 265 265 264 262 259 256 254 252 251 251 249 248 246 246 245 244 244 243 242 242 241 240 240 240 240 240 239 238 237 237 236 236 236 237 237 238 238 239 239 239 239 240 241 242 242 243 243 243 244 244 244 245 245 246
326 324 323 321 321 321 320 319 318 317 316 316 315 315 314 312 310 308 304 300 296 292 290 288 286 283 280 276 272 270 268 266 265 264 263 262 259 256 253 251 250 250 249 248 247 246 246 244 243 243 242 241 241 240 240 240 240 240 239 238 238 238 237 236 237 237 238 238 239 239 239 239 240 240 241 242 242 243 243 243 244 244 244 244 245
328 326 325 323 322 321 321 319 318 317 317 317 316 315 314 313 312 310 307 304 301 298 294 292 289 287 284 281 278 276 274 271 268 266 265 263 261 259 255 252 250 249 249 249 248 247 246 245 244 243 242 241 241 240 240 239 239 239 239 239 238 238 238 238 237 238 238 239 239 240 240 240 240 240 241 241 242 243 243 243 243 243 243 244 245
331 329 328 326 324 323 321 320 319 318 318 318 317 316 315 315 314 312 309 305 303 302 300 297 294 290 287 284 282 281 278 275 272 269 267 264 262 260 258 254 250 248 248 248 249 248 246 245 244 243 242 241 241 240 239 238 238 238 238 238 238 238 238 239 239 238 239 239 240 240 240 241 241 241 241 241 242 242 243 243 243 243 243 243 244
332 330 329 328 326 324 322 320 319 319 318 318 317 316 315 315 315 314 310 307 304 304 303 301 297 293 289 286 283 281 279 276 274 271 269 265 262 260 259 256 252 249 247 246 247 247 247 246 244 243 242 242 241 240 239 239 238 237 237 237 238 238 238 238 238 239 239 239 239 239 240 241 241 241 241 241 242 242 242 242 243 243 243 243 244
333 331 330 329 327 325 323 321 321 320 319 317 316 316 316 316 315 314 312 308 304 303 303 302 298 294 290 287 284 280 277 275 274 272 270 267 264 260 258 256 254 251 248 245 245 245 246 246 245 244 242 241 240 240 239 239 238 238 237 237 237 237 237 237 237 238 239 239 240 240 240 240 240 241 242 242 242 242 242 242 243 243 243 244 244
332 331 331 330 328 327 326 323 322 321 320 318 317 316 317 317 316 315 313 311 306 302 301 300 298 295 292 289 285 282 277 274 272 272 271 269 266 263 258 256 254 253 250 247 245 245 245 245 245 245 243 241 239 239 239 238 238 238 237 237 237 237 237 237 237 238 238 239 239 239 239 240 240 240 241 242 242 243 244 244 244 244 245 245 245
332 331 332 332 330 329 328 325 324 323 322 320 319 318 318 318 317 315 314 313 309 304 300 297 296 295 293 290 286 283 279 275 272 271 271 270 267 265 262 258 255 253 252 251 248 246 245 245 245 245 244 243 241 239 238 238 237 237 237 237 237 237 238 238 238 238 238 238 238 239 239 239 239 239 240 241 241 242 243 244 245 246 246 247 247
333 332 333 333 332 331 329 326 325 324 323 321 320 319 318 318 317 316 316 314 311 308 303 298 295 295 293 289 285 283 280 277 275 273 272 271 269 267 265 263 260 256 254 253 251 250 248 246 245 245 245 245 244 243 241 240 239 238 237 237 237 237 237 238 238 238 238 238 238 238 238 238 238 238 238 239 240 240 241 242 243 245 246 247 248
335 335 336 335 333 332 330 327 327 325 323 321 321 320 320 318 317 317 316 315 312 309 305 300 297 294 290 286 284 283 282 280 278 275 272 271 270 269 268 267 265 262 259 256 255 253 251 249 247 246 245 245 245 244 243 242 241 239 238 237 237 237 237 237 238 238 238 238 238 238 238 239 239 238 238 238 238 239 239 240 241 243 244 245 247
337 337 338 337 335 334 331 329 329 327 324 323 323 323 321 319 317 315 315 314 312 310 308 303 299 294 288 285 285 286 285 283 280 276 272 270 269 269 269 269 268 266 264 261 258 255 252 250 247 246 245 245 245 244 243 242 241 240 239 238 238 238 237 237 237 238 238 237 237 237 237 238 239 239 239 239 239 239 239 240 240 241 242 243 244
340 340 340 338 337 335 332 330 330 329 326 325 326 324 322 319 317 314 312 312 311 309 308 306 302 297 291 290 291 290 287 284 280 277 273 270 267 267 268 269 268 266 263 259 257 255 253 251 249 247 245 244 244 243 241 241 240 240 239 238 238 238 238 238 238 238 238 237 237 237 237 237 238 238 238 239 239 239 240 240 240 240 241 241 241
343 343 342 340 338 336 333 331 331 330 328 327 327 324 321 319 317 314 313 312 310 309 308 307 305 301 298 297 295 291 287 284 282 279 276 271 266 264 262 262 262 261 259 257 255 253 252 251 250 248 246 245 243 242 241 240 239 239 239 238 238 238 239 239 238 238 237 237 238 238 238 238 238 239 239 239 239 239 239 239 238 238 238 239 239
345 345 343 342 340 338 335 334 333 332 329 328 327 325 322 320 318 316 316 315 312 310 309 309 307 304 301 298 294 290 287 286 284 282 279 274 269 265 263 260 259 259 258 258 256 255 253 252 251 250 249 247 245 244 243 242 241 239 238 237 236 236 238 239 239 239 238 238 238 238 239 239 240 240 241 241 240 239 239 238 238 237 237 238 238
347 346 345 344 342 339 337 336 335 334 332 331 331 329 326 323 320 319 319 318 316 314 313 312 310 306 303 300 296 293 291 290 288 285 282 279 275 271 267 264 262 260 258 257 256 256 255 254 253 251 249 247 245 244 244 242 241 240 239 237 236 236 236 238 239 240 239 239 239 239 239 239 239 240 240 240 240 238 237 237 238 238 238 238 238
348 347 346 345 344 341 338 337 337 337 335 335 334 332 329 326 324 324 323 320 319 318 318 316 314 310 307 304 301 298 296 294 291 287 283 280 276 273 269 266 264 263 261 259 257 255 253 252 250 249 248 246 245 244 243 243 242 241 240 239 238 238 238 239 240 240 240 240 240 239 238 238 237 237 237 237 237 236 235 236 238 238 238 238 239
348 347 347 346 345 342 339 339 339 339 338 338 338 335 331 329 329 328 326 323 323 323 323 321 318 314 310 307 304 301 298 295 291 287 282 278 275 272 270 268 266 266 264 262 259 256 253 250 249 248 248 247 246 245 244 243 243 242 241 240 239 239 239 239 240 241 241 240 240 239 237 236 236 236 235 235 235 234 234 235 236 237 237 239 240
349 348 348 347 346 344 342 341 341 340 341 341 340 336 333 333 334 333 330 328 328 328 326 323 320 316 312 309 306 303 299 295 291 287 282 279 277 275 273 270 268 266 264 262 259 257 254 252 249 248 247 247 247 247 246 245 245 244 243 242 241 240 239 240 240 241 241 241 240 239 238 237 236 236 236 236 235 234 233 233 235 235 235 237 238
349 349 349 348 347 346 343 342 342 342 343 343 340 337 335 337 338 337 334 333 333 332 329 325 321 318 314 311 308 305 302 297 293 289 286 284 280 277 273 270 267 264 261 259 256 254 253 252 251 250 249 249 249 248 247 246 246 246 246 245 245 244 242 242 241 242 242 242 242 240 239 238 237 236 236 236 236 236 235 235 235 234 233 234 236
350 350 350 349 348 346 345 344 344 345 344 342 340 338 339 341 341 340 339 339 339 336 331 327 324 321 317 313 310 306 303 300 298 295 292 288 283 276 270 266 263 260 257 254 251 249 249 248 248 248 248 249 250 250 249 247 246 245 245 246 246 246 246 245 244 243 242 243 243 241 240 239 238 237 236 236 237 237 237 237 237 235 234 234 235
351 351 351 350 348 347 346 346 347 346 343 342 341 342 344 345 345 344 344 345 344 340 334 330 327 324 321 317 313 310 307 306 305 302 296 290 282 275 268 264 261 258 255 252 250 249 247 247 246 246 246 247 248 249 249 248 245 243 242 242 243 244 245 245 244 243 242 242 242 242 241 240 239 238 237 237 237 237 237 238 239 238 237 235 234
352 353 352 351 350 349 348 349 348 346 344 344 344 345 348 349 348 348 349 350 347 342 337 333 330 326 324 321 318 317 315 314 311 304 295 287 280 274 271 268 265 262 260 258 257 254 252 250 249 248 247 246 246 246 247 247 245 243 240 238 238 239 240 240 241 241 241 241 241 241 241 240 239 238 237 236 235 235 236 238 239 240 239 238 237
353 353 353 352 350 350 350 350 349 347 347 347 347 348 351 351 350 350 351 352 349 344 340 337 334 331 328 326 325 323 321 317 311 302 292 286 282 280 277 274 270 268 267 265 262 259 256 254 253 251 249 247 247 246 246 246 245 243 239 236 234 234 234 235 235 236 237 237 238 238 238 238 238 237 237 236 235 235 235 236 238 239 239 239 239
354 354 354 352 351 351 352 351 349 349 350 349 348 351 352 352 351 351 353 353 351 347 345 343 340 337 333 331 328 325 322 317 311 306 301 298 293 288 283 278 275 272 270 266 263 260 259 257 254 251 249 248 247 248 248 248 246 244 240 236 233 231 231 231 232 233 233 234 235 235 235 235 235 235 234 234 234 233 233 234 235 236 237 238 239
355 355 354 353 353 353 352 351 351 352 351 349 350 352 353 352 352 354 355 354 352 350 350 349 346 343 338 334 331 328 326 325 323 320 319 315 310 303 296 287 279 273 268 266 266 266 266 264 259 254 251 249 248 249 249 249 247 245 241 238 234 231 230 230 230 231 231 232 232 233 234 234 234 233 233 232 232 232 232 233 233 234 235 237 237
356 356 356 354 354 353 353 353 354 353 351 351 352 354 354 354 355 356 356 355 354 354 354 353 351 349 344 340 338 338 339 340 341 340 336 331 327 320 307 293 279 273 269 271 274 280 283 277 268 260 254 250 247 245 245 245 245 244 241 238 235 232 230 229 229 229 230 231 232 232 233 233 233 233 233 232 231 230 229 229 230 230 231 232 233
357 357 356 355 354 354 355 355 354 353 353 353 355 355 355 355 357 357 357 356 356 356 356 356 356 355 354 354 353 352 353 353 352 350 344 339 338 337 331 323 315 310 298 284 283 290 287 277 270 263 256 249 243 239 237 236 236 236 235 234 232 230 229 228 228 228 228 228 229 231 232 232 231 231 230 230 230 229 228 227 227 227 228 229 230